Regional Weather Roundup
Issued by NWS

Home | Current Version | Previous Version | Graphics & Text | Print | Product List | Glossary Off
Versions: 1 2 3 4 5 6 7 8 9 10 11 12 13 14 15 16 17 18 19 20 21 22 23 24 25 26 27 28 29 30 31 32 33 34 35 36 37 38 39 40 41 42 43 44 45 46 47 48 49 50

613
ASUS43 KBIS 030110
RWRND

NORTH DAKOTA REGIONAL WEATHER ROUNDUP
NATIONAL WEATHER SERVICE BISMARCK ND
700 PM CST FRI DEC 02 2016

NOTE: "FAIR" INDICATES FEW OR NO CLOUDS BELOW 12,000 FEET WITH NO
SIGNIFICANT WEATHER AND/OR OBSTRUCTIONS TO VISIBILITY.


NDZ001>003-009>011-017-030200-
NORTHWEST NORTH DAKOTA

CITY           SKY/WX    TMP DP  RH WIND       PRES   REMARKS
WILLISTON      CLOUDY    29  25  85 S5        30.11F
MINOT          CLOUDY    27  23  85 SE7       30.15F WCI  19
MINOT AFB      CLOUDY    27  24  87 S12       30.14F WCI  17
$$

NDZ018>021-031>035-040>046-030200-
SOUTHWEST NORTH DAKOTA

CITY           SKY/WX    TMP DP  RH WIND       PRES   REMARKS
BISMARCK       CLOUDY    24  21  88 SE10      30.23F WCI  14
DICKINSON      PTCLDY    25  23  92 SW8       30.11F WCI  16
GARRISON         N/A     27  24  89 S12       30.16F WCI  17
HETTINGER ARPT MOCLDY    26  24  92 SE3       30.17F
$$

NDZ004>008-012>016-024-026-027-054-030200-
NORTHEAST NORTH DAKOTA

CITY           SKY/WX    TMP DP  RH WIND       PRES   REMARKS
GRAND FORKS    CLOUDY    31  23  72 SW3       30.27S
GRND FRKS AFB  CLOUDY    31  22  71 W5        30.27R
DEVILS LAKE    FLURRIES  27  20  75 SW10      30.24S WCI  17
$$

NDZ022-023-025-028>030-036>039-047>053-030200-
SOUTHEAST NORTH DAKOTA

CITY           SKY/WX    TMP DP  RH WIND       PRES   REMARKS
FARGO          CLOUDY    30  20  66 W5        30.30S
JAMESTOWN      CLOUDY    25  17  72 SW7       30.26S WCI  17
$$





USA.gov is the U.S. government's official web portal to all federal, state and local government web resources and services.